Date String (YYYY-MM-DD hh:mm:ss) UTC,Instrument flags,Ambient pressure (hPa),Sample flow (lpm),Bypass flow (lpm),Sample temperature (°C),Ambient temperature (°C),ASC tube jacket temperature (°C),LED temperature (°C),Box temperature (°C),Sample RH (%),Span deviation,Mass concentration (μg/m³),Mass concentration (μg/m³),Mass concentration (μg/m³)
DateTimeUTC,F1_M11,P_M11,Q1_M11,Q2_M11,T1_M11,T2_M11,T3_M11,T4_M11,T5_M11,U1_M11,ZSPAN_M11,X2_M11,X0_M11,X1_M11
2022-01-04 07:00:00,,0817.7,4.99,0.00,22.5,23.0,00.0,31.3,24.5,07.0,0000.0,0004.59,0008.88,0004.27
2022-01-04 07:01:00,,0817.8,5.00,0.00,22.5,22.8,00.0,31.4,24.5,07.1,0000.0,0004.56,0008.98,0004.21
2022-01-04 07:02:00,,0817.8,5.00,0.00,22.6,22.7,00.0,31.4,24.5,07.6,0000.0,0004.54,0009.02,0004.17
2022-01-04 07:03:00,,0817.8,5.01,0.00,22.6,22.5,00.0,31.4,24.4,07.5,0000.0,0004.51,0008.75,0004.15
2022-01-04 07:04:00,,0817.8,4.99,0.00,22.6,22.4,00.0,31.4,24.3,07.9,0000.0,0004.49,0008.69,0004.12
2022-01-04 07:05:00,,0817.8,5.01,0.00,22.5,22.2,00.0,31.4,24.3,07.9,0000.0,0004.51,0008.69,0004.12
2022-01-04 07:06:00,,0817.6,4.99,0.00,22.5,22.1,00.0,31.4,24.2,07.8,0000.0,0004.51,0008.78,0004.14
2022-01-04 07:07:00,,0817.6,5.02,0.00,22.4,22.0,00.0,31.4,24.1,07.4,0000.0,0004.46,0008.52,0004.12
2022-01-04 07:08:00,,0817.7,4.99,0.00,22.4,21.9,00.0,31.4,24.1,07.3,0000.0,0004.40,0007.93,0004.05
2022-01-04 07:09:00,,0817.6,5.00,0.00,22.4,21.9,00.0,31.4,24.1,07.2,0000.0,0004.28,0007.73,0003.95
2022-01-04 07:10:00,,0817.6,5.02,0.00,22.4,21.9,00.0,31.4,24.2,07.2,0000.0,0004.18,0007.41,0003.86
2022-01-04 07:11:00,,0817.6,4.99,0.00,22.4,21.8,00.0,31.4,24.1,07.3,0000.0,0004.19,0007.36,0003.86
2022-01-04 07:12:00,,0817.6,4.99,0.00,22.4,21.8,00.0,31.4,24.1,07.4,0000.0,0004.19,0007.20,0003.88
2022-01-04 07:13:00,,0817.6,5.00,0.00,22.4,21.7,00.0,31.4,24.1,07.5,0000.0,0004.17,0007.24,0003.88
2022-01-04 07:14:00,,0817.5,4.99,0.00,22.4,21.7,00.0,31.4,24.1,07.4,0000.0,0004.13,0007.26,0003.84
2022-01-04 07:15:00,,0817.5,5.00,0.00,22.4,21.8,00.0,31.4,24.1,07.6,0000.0,0004.08,0007.15,0003.80
2022-01-04 07:16:00,,0817.8,5.00,0.00,22.4,21.8,00.0,31.4,24.2,07.3,0000.0,0003.97,0006.94,0003.70
2022-01-04 07:17:00,,0817.7,5.00,0.00,22.4,21.8,00.0,31.4,24.1,07.8,0000.0,0003.87,0006.31,0003.60
2022-01-04 07:18:00,,0817.6,5.01,0.00,22.3,21.7,00.0,31.4,24.0,07.7,0000.0,0003.87,0005.98,0003.58
2022-01-04 07:19:00,,0817.6,5.00,0.00,22.3,21.6,00.0,31.4,24.0,07.5,0000.0,0003.88,0006.08,0003.58
2022-01-04 07:20:00,,0817.7,4.99,0.00,22.3,21.6,00.0,31.4,23.9,07.3,0000.0,0003.87,0006.02,0003.59
2022-01-04 07:21:00,,0817.7,5.02,0.00,22.3,21.6,00.0,31.4,23.9,07.5,0000.0,0003.89,0006.11,0003.60
2022-01-04 07:22:00,,0817.6,4.99,0.00,22.3,21.6,00.0,31.3,24.0,07.3,0000.0,0003.87,0006.07,0003.59
2022-01-04 07:23:00,,0817.6,5.00,0.00,22.3,21.6,00.0,31.3,24.0,07.1,0000.0,0003.83,0005.92,0003.57
2022-01-04 07:24:00,,0817.6,5.00,0.00,22.3,21.6,00.0,31.3,24.1,07.3,0000.0,0003.80,0005.63,0003.53
2022-01-04 07:25:00,,0817.6,5.01,0.00,22.3,21.6,00.0,31.3,24.0,07.5,0000.0,0003.78,0005.41,0003.51
2022-01-04 07:26:00,,0817.5,4.99,0.00,22.2,21.6,00.0,31.3,23.9,07.1,0000.0,0003.72,0005.22,0003.48
2022-01-04 07:27:00,,0817.4,5.01,0.00,22.2,21.5,00.0,31.3,23.9,07.1,0000.0,0003.67,0005.08,0003.45
2022-01-04 07:28:00,,0817.4,5.01,0.00,22.2,21.5,00.0,31.3,23.9,07.0,0000.0,0003.62,0004.96,0003.40
2022-01-04 07:29:00,,0817.4,5.00,0.00,22.2,21.5,00.0,31.3,23.9,07.2,0000.0,0003.57,0004.95,0003.34
2022-01-04 07:30:00,,0817.5,5.00,0.00,22.2,21.5,00.0,31.3,23.9,07.3,0000.0,0003.52,0005.70,0003.32
2022-01-04 07:31:00,,0817.6,5.01,0.00,22.2,21.5,00.0,31.3,23.9,07.5,0000.0,0003.52,0005.85,0003.33
2022-01-04 07:32:00,,0817.5,5.00,0.00,22.2,21.5,00.0,31.3,24.0,07.6,0000.0,0003.53,0006.58,0003.35
2022-01-04 07:33:00,,0817.4,4.99,0.00,22.2,21.6,00.0,31.3,24.0,07.7,0000.0,0003.56,0007.52,0003.38
2022-01-04 07:34:00,,0817.4,5.01,0.00,22.2,21.6,00.0,31.2,24.0,07.8,0000.0,0003.65,0007.72,0003.45
2022-01-04 07:35:00,,0817.6,5.00,0.00,22.2,21.6,00.0,31.3,24.0,07.7,0000.0,0003.69,0008.41,0003.50
2022-01-04 07:36:00,,0817.5,4.99,0.00,22.3,21.6,00.0,31.3,24.0,07.9,0000.0,0003.74,0008.55,0003.56
2022-01-04 07:37:00,,0817.6,5.02,0.00,22.3,21.6,00.0,31.2,24.0,07.9,0000.0,0003.80,0009.06,0003.61
2022-01-04 07:38:00,,0817.7,5.00,0.00,22.3,21.7,00.0,31.3,24.1,07.6,0000.0,0003.85,0009.62,0003.65
2022-01-04 07:39:00,,0817.6,5.00,0.00,22.3,21.7,00.0,31.3,24.1,07.7,0000.0,0003.89,0009.69,0003.69
2022-01-04 07:40:00,,0817.5,5.01,0.00,22.3,21.7,00.0,31.3,24.1,07.8,0000.0,0003.91,0009.65,0003.73
2022-01-04 07:41:00,,0817.5,5.00,0.00,22.3,21.7,00.0,31.3,24.1,07.8,0000.0,0003.94,0009.28,0003.75
2022-01-04 07:42:00,,0817.6,5.01,0.00,22.3,21.7,00.0,31.3,24.1,07.7,0000.0,0003.98,0009.15,0003.76
2022-01-04 07:43:00,,0817.6,4.99,0.00,22.3,21.7,00.0,31.3,24.1,07.6,0000.0,0003.98,0009.31,0003.77
2022-01-04 07:44:00,,0817.6,5.01,0.00,22.3,21.7,00.0,31.3,24.1,07.4,0000.0,0003.99,0008.68,0003.76
2022-01-04 07:45:00,,0817.5,4.99,0.00,22.3,21.7,00.0,31.3,24.1,07.5,0000.0,0003.96,0008.58,0003.72
2022-01-04 07:46:00,,0817.5,5.00,0.00,22.3,21.7,00.0,31.3,24.1,07.3,0000.0,0003.93,0007.93,0003.70
2022-01-04 07:47:00,,0817.5,5.00,0.00,22.3,21.7,00.0,31.3,24.1,07.3,0000.0,0003.93,0007.90,0003.68
2022-01-04 07:48:00,,0817.4,5.01,0.00,22.3,21.7,00.0,31.3,24.1,07.2,0000.0,0003.93,0007.50,0003.67
2022-01-04 07:49:00,,0817.4,5.00,0.00,22.3,21.6,00.0,31.3,24.0,06.9,0000.0,0003.91,0007.21,0003.64
2022-01-04 07:50:00,,0817.4,4.99,0.00,22.3,21.6,00.0,31.3,24.0,06.9,0000.0,0003.87,0007.11,0003.60
2022-01-04 07:51:00,,0817.4,5.01,0.00,22.3,21.6,00.0,31.3,24.0,07.0,0000.0,0003.83,0007.03,0003.56
2022-01-04 07:52:00,,0817.5,4.98,0.00,22.3,21.6,00.0,31.3,24.0,07.1,0000.0,0003.78,0006.90,0003.52
2022-01-04 07:53:00,,0817.4,5.01,0.00,22.3,21.6,00.0,31.3,24.0,06.8,0000.0,0003.71,0006.68,0003.47
2022-01-04 07:54:00,,0817.4,5.01,0.00,22.3,21.6,00.0,31.3,24.1,06.7,0000.0,0003.61,0005.78,0003.39
2022-01-04 07:55:00,,0817.4,4.99,0.00,22.3,21.7,00.0,31.3,24.1,06.6,0000.0,0003.53,0005.44,0003.32
2022-01-04 07:56:00,,0817.5,5.01,0.00,22.3,21.7,00.0,31.3,24.1,06.7,0000.0,0003.43,0005.51,0003.25
2022-01-04 07:57:00,,0817.5,4.99,0.00,22.3,21.6,00.0,31.3,24.0,06.7,0000.0,0003.36,0005.34,0003.20
2022-01-04 07:58:00,,0817.3,4.99,0.00,22.3,21.6,00.0,31.3,24.0,06.0,0000.0,0003.22,0004.96,0003.04
2022-01-04 07:59:00,,0817.3,5.02,0.00,22.3,21.6,00.0,31.3,23.9,05.7,0000.0,0002.91,0004.42,0002.69
